AC0ZH Weather Reports


time (UTC)temp
C
wind
direction
speed
KPH
gust
KPH
rain 1hr
cm
rain 24hr
cm
rain mn
cm
humidity
%
barometer
mb
20260504173500 11 29.0 40.2 0.00 5.46 0.61 43 1004.7
20260504173000 11 29.0 40.2 0.00 5.46 0.61 43 1004.7
20260504172501 11 29.0 40.2 0.00 5.46 0.61 43 1004.7
20260504172000 11 29.0 40.2 0.00 5.46 0.61 44 1004.7
20260504171500 10 25.7 37.0 0.00 5.46 0.61 46 1004.7
20260504171001 10 25.7 37.0 0.00 5.46 0.61 47 1004.7
20260504170500 10 25.7 37.0 0.00 5.46 0.61 47 1004.7
20260504151000 9 24.1 37.0 0.00 5.26 0.41 52 1004.4
20260504150501 10 24.1 37.0 0.00 5.26 0.41 53 999.7
20260504141001 9 25.7 40.2 0.00 5.26 0.41 56 1003.7
20260504140500 9 25.7 40.2 0.00 5.26 0.41 56 998.3
20260504130500 9 20.9 37.0 0.00 5.26 0.41 56 997.3
20260504110500 11 14.5 27.4 0.00 5.26 0.41 54 995.9
20260504100501 11 17.7 33.8 0.00 5.26 0.41 48 995.6
20260504082000 13 19.3 41.8 0.00 5.26 0.41 44 993.6
20260504081500 14 19.3 41.8 0.00 5.26 0.41 45 999.0
20260504081001 15 19.3 41.8 0.00 5.26 0.41 45 999.0
20260504080501 15 19.3 41.8 0.00 5.26 0.41 45 999.0
20260504050500 16 17.7 32.2 0.41 5.26 0.41 40 997.0
20260504050000 16 17.7 32.2 0.00 4.85 0.00 40 997.0
20260504045500 16 17.7 30.6 0.00 4.85 0.00 40 997.3
20260504045000 16 17.7 30.6 0.00 4.85 0.00 40 997.3
20260504044501 16 17.7 29.0 0.00 4.85 0.00 40 997.3
20260504044001 16 17.7 29.0 0.00 4.85 0.00 40 997.3
20260504043500 16 17.7 29.0 0.00 4.85 0.00 40 998.0
20260504042000 16 17.7 29.0 0.00 4.85 0.00 40 998.0
20260504041500 16 16.1 29.0 0.00 4.85 0.00 40 996.6
20260504041000 16 16.1 29.0 0.00 4.85 0.00 40 996.6
20260504040501 16 14.5 27.4 0.00 4.85 0.00 40 998.7
20260504040001 16 14.5 27.4 0.00 4.85 0.00 40 998.7
20260504035500 16 14.5 27.4 0.00 4.85 0.00 40 998.7
20260504035001 16 14.5 27.4 0.00 4.85 0.00 40 998.7
20260504034500 16 14.5 25.7 0.00 4.85 0.00 40 999.0
20260504034000 16 14.5 25.7 0.00 4.85 0.00 40 999.0
20260504033500 16 14.5 25.7 0.00 4.85 0.00 40 999.0
20260504033001 16 14.5 25.7 0.00 4.85 0.00 40 999.0
20260504032500 16 14.5 25.7 0.00 4.85 0.00 40 999.3
20260504032000 16 14.5 25.7 0.00 4.85 0.00 40 999.3
20260504031500 16 12.9 24.1 0.00 4.85 0.00 40 995.9
20260504031000 16 12.9 24.1 0.00 4.85 0.00 40 995.9
20260504030500 16 12.9 24.1 0.00 4.85 0.00 40 999.7
20260504025500 16 12.9 24.1 0.00 4.85 0.00 40 1000.0
20260504025000 16 12.9 24.1 0.00 4.85 0.00 40 1000.0
20260504024501 16 12.9 22.5 0.00 4.85 0.00 41 1000.0
20260504024000 16 12.9 22.5 0.00 4.85 0.00 41 1000.0
20260504023500 16 12.9 24.1 0.00 4.85 0.00 41 1000.0
20260504023001 16 12.9 24.1 0.00 4.85 0.00 41 1000.0
20260504022501 16 12.9 24.1 0.00 4.85 0.00 41 1000.7
20260504021500 16 12.9 24.1 0.00 4.85 0.00 41 996.3
20260504021000 16 12.9 24.1 0.00 4.85 0.00 41 996.3
20260504020501 16 12.9 24.1 0.00 4.85 0.00 42 1001.0
20260504020000 16 12.9 24.1 0.00 4.85 0.00 42 1001.0
20260504015501 16 12.9 24.1 0.00 4.85 0.00 42 1001.4
20260504015000 16 12.9 24.1 0.00 4.85 0.00 42 1001.4
20260504014500 16 16.1 27.4 0.00 4.85 0.00 42 1001.7
20260504014000 16 16.1 27.4 0.00 4.85 0.00 42 1001.7
20260504013500 17 16.1 27.4 0.00 4.85 0.00 42 1001.7
20260504013000 17 16.1 27.4 0.00 4.85 0.00 42 1001.7
20260504012000 17 16.1 29.0 0.00 4.85 0.00 43 1001.7
20260504011500 17 17.7 29.0 0.00 4.85 0.00 42 995.6
20260504011000 17 17.7 29.0 0.00 4.85 0.00 42 995.6
20260504010500 17 17.7 29.0 0.00 4.85 0.00 42 995.6
20260504010000 17 17.7 29.0 0.00 4.85 0.00 42 995.6
20260504005501 17 17.7 29.0 0.00 4.85 0.00 42 1002.0
20260504005000 17 17.7 29.0 0.00 4.85 0.00 42 1002.0
20260504003500 17 17.7 30.6 0.00 4.85 0.00 41 1002.7
20260504003000 18 17.7 30.6 0.00 4.85 0.00 41 1002.7
20260504002501 18 17.7 30.6 0.00 4.85 0.00 41 1002.7
20260504002000 18 17.7 30.6 0.00 4.85 0.00 40 1002.7
20260504001500 18 14.5 25.7 0.00 4.85 0.00 40 1002.7
20260504001000 18 14.5 25.7 0.00 4.85 0.00 40 1002.7
20260504000500 18 14.5 25.7 0.00 4.85 0.00 41 1003.0
20260504000000 18 14.5 25.7 0.00 4.85 0.00 40 1003.0
20260503235500 18 14.5 25.7 0.00 4.85 0.00 38 1003.0
20260503235000 18 14.5 25.7 0.00 4.85 0.00 39 1003.0
20260503234000 18 17.7 29.0 0.00 4.85 0.00 38 1003.0
20260503233500 19 19.3 33.8 0.00 4.85 0.00 37 1003.7
20260503233001 19 19.3 33.8 0.00 4.85 0.00 36 1003.7
20260503232500 19 17.7 29.0 0.00 4.85 0.00 38 1003.7
20260503232000 19 17.7 29.0 0.00 4.85 0.00 38 1003.7
20260503231500 19 17.7 29.0 0.00 4.85 0.00 37 998.3
20260503231000 19 17.7 29.0 0.00 4.85 0.00 38 998.3
20260503230000 20 17.7 29.0 0.00 4.85 0.00 37 1003.7
20260503225500 20 16.1 27.4 0.00 4.85 0.00 35 1004.1
20260503225001 20 16.1 27.4 0.00 4.85 0.00 36 1004.1
20260503224500 20 16.1 27.4 0.00 4.85 0.00 35 1004.1
20260503224000 20 16.1 27.4 0.00 4.85 0.00 35 1004.1
20260503223500 20 17.7 27.4 0.00 4.85 0.00 35 1004.1
20260503223000 20 17.7 27.4 0.00 4.85 0.00 34 1004.1
20260503222500 20 14.5 24.1 0.00 4.85 0.00 34 1004.4
20260503221001 20 14.5 24.1 0.00 4.85 0.00 34 999.7
20260503220501 20 14.5 24.1 0.00 4.85 0.00 34 1004.7
20260503220000 20 14.5 24.1 0.00 4.85 0.00 34 1004.7
20260503215501 21 17.7 27.4 0.00 4.85 0.00 34 1004.7
20260503215000 20 17.7 27.4 0.00 4.85 0.00 34 1004.7
20260503214500 20 14.5 24.1 0.00 4.85 0.00 35 1004.7
20260503214000 20 14.5 24.1 0.00 4.85 0.00 35 1004.7
20260503213500 20 16.1 25.7 0.00 4.85 0.00 36 1000.7
20260503213000 20 16.1 25.7 0.00 4.85 0.00 35 1000.7
20260503212500 20 14.5 24.1 0.00 4.85 0.00 34 1005.4
20260503212000 21 14.5 24.1 0.00 4.85 0.00 34 1005.4
20260503211500 20 16.1 25.7 0.00 4.85 0.00 35 1000.7
20260503211000 20 16.1 25.7 0.00 4.85 0.00 35 1000.7
20260503210500 20 16.1 25.7 0.00 4.85 0.00 34 1005.8
20260503210000 20 16.1 25.7 0.00 4.85 0.00 34 1005.8
20260503204500 20 16.1 25.7 0.00 4.85 0.00 35 1006.1
20260503204000 20 16.1 25.7 0.00 4.85 0.00 34 1006.1
20260503203000 20 16.1 25.7 0.00 4.85 0.00 37 1001.4
20260503202500 20 14.5 25.7 0.00 4.85 0.00 36 1006.4
20260503202000 20 14.5 25.7 0.00 4.85 0.00 34 1006.4
20260503201000 20 14.5 24.1 0.00 4.85 0.00 35 1001.4
20260503200500 20 14.5 24.1 0.00 4.85 0.00 35 1006.8
20260503200000 20 14.5 24.1 0.00 4.85 0.00 34 1006.8
20260503195500 20 14.5 24.1 0.00 4.85 0.00 34 1006.8
20260503195001 20 14.5 24.1 0.00 4.85 0.00 35 1006.8
20260503194501 20 14.5 22.5 0.00 4.85 0.00 35 1002.0
20260503194000 19 14.5 22.5 0.00 4.85 0.00 34 1002.0
20260503193500 19 14.5 22.5 0.00 4.85 0.00 35 1007.1
20260503193000 19 14.5 22.5 0.00 4.85 0.00 34 1007.1
20260503192500 19 14.5 22.5 0.00 4.85 0.00 34 1007.1
20260503192000 19 14.5 22.5 0.00 4.85 0.00 34 1007.1
20260503191500 19 16.1 24.1 0.00 4.85 0.00 34 1007.1
20260503191000 19 16.1 24.1 0.00 4.85 0.00 34 1007.1
20260503190500 19 16.1 24.1 0.00 4.85 0.00 34 1007.5
20260503190000 19 16.1 24.1 0.00 4.85 0.00 35 1007.5
20260503185501 19 14.5 22.5 0.00 4.85 0.00 35 1007.8
20260503185001 19 14.5 22.5 0.00 4.85 0.00 35 1007.8
20260503184500 18 16.1 24.1 0.00 4.85 0.00 35 1007.8
20260503184001 18 16.1 24.1 0.00 4.85 0.00 35 1007.8
20260503183501 18 14.5 24.1 0.00 4.85 0.00 35 1008.1
20260503183000 18 14.5 24.1 0.00 4.85 0.00 35 1008.1
20260503182501 18 14.5 24.1 0.00 4.85 0.00 34 1008.1
20260503182000 18 14.5 24.1 0.00 4.85 0.00 34 1008.1
20260503181500 18 14.5 22.5 0.00 4.85 0.00 33 1003.0
20260503181000 18 14.5 22.5 0.00 4.85 0.00 32 1003.0
20260503180000 18 14.5 22.5 0.00 4.85 0.00 33 1008.5
20260503175500 18 14.5 22.5 0.00 4.85 0.00 32 1008.5
20260503175000 18 14.5 22.5 0.00 4.85 0.00 32 1008.5
20260503174500 18 14.5 22.5 0.00 4.85 0.00 33 1008.5
20260503174000 18 14.5 22.5 0.00 4.85 0.00 33 1008.5